| time (UTC) | temp C | wind direction | speed KPH | gust KPH | rain 1hr cm | rain 24hr cm | rain mn cm | humidity % | barometer mb |
| 20260506203025 | 17 | 229 | 8.0 | 29.0 | 0.00 | 0.00 | 0.00 | 23 | 925.9 |
| 20260506201521 | 17 | 263 | 14.5 | 32.2 | 0.00 | 0.00 | 0.00 | 23 | 926.2 |
| 20260506200003 | 16 | 225 | 11.3 | 33.8 | 0.00 | 0.00 | 0.00 | 23 | 926.4 |
| 20260506194600 | 16 | 298 | 6.4 | 27.4 | 0.00 | 0.00 | 0.00 | 23 | 926.6 |
| 20260506193038 | 15 | 231 | 20.9 | 27.4 | 0.00 | 0.00 | 0.00 | 23 | 927.0 |
| 20260506191533 | 15 | 222 | 14.5 | 19.3 | 0.00 | 0.00 | 0.00 | 24 | 927.2 |
| 20260506190012 | 14 | 192 | 14.5 | 37.0 | 0.00 | 0.00 | 0.00 | 24 | 927.6 |
| 20260506184510 | 14 | 178 | 17.7 | 27.4 | 0.00 | 0.00 | 0.00 | 24 | 927.8 |
| 20260506183043 | 13 | 186 | 4.8 | 25.7 | 0.00 | 0.00 | 0.00 | 24 | 928.0 |
| 20260506181557 | 12 | 248 | 8.0 | 22.5 | 0.00 | 0.00 | 0.00 | 25 | 928.3 |
| 20260506180021 | 12 | 199 | 16.1 | 33.8 | 0.00 | 0.00 | 0.00 | 26 | 928.5 |
| 20260506174516 | 12 | 226 | 11.3 | 27.4 | 0.00 | 0.00 | 0.00 | 28 | 928.9 |
| 20260506173122 | 11 | 180 | 12.9 | 25.7 | 0.00 | 0.00 | 0.00 | 30 | 929.2 |
| 20260506171602 | 11 | 224 | 8.0 | 20.9 | 0.00 | 0.00 | 0.00 | 31 | 929.5 |
| 20260506170033 | 11 | 229 | 14.5 | 20.9 | 0.00 | 0.00 | 0.00 | 35 | 929.5 |
| 20260506164530 | 10 | 153 | 12.9 | 24.1 | 0.00 | 0.00 | 0.00 | 35 | 929.7 |
| 20260506163010 | 9 | 184 | 12.9 | 19.3 | 0.00 | 0.00 | 0.00 | 41 | 930.0 |
| 20260506161505 | 8 | 178 | 14.5 | 25.7 | 0.00 | 0.00 | 0.00 | 46 | 930.2 |
| 20260506160058 | 7 | 189 | 16.1 | 22.5 | 0.00 | 0.00 | 0.00 | 49 | 930.4 |
| 20260506154544 | 6 | 185 | 12.9 | 20.9 | 0.00 | 0.00 | 0.00 | 50 | 930.8 |
| 20260506153020 | 6 | 207 | 11.3 | 14.5 | 0.00 | 0.00 | 0.00 | 51 | 931.1 |
| 20260506151518 | 5 | 192 | 11.3 | 19.3 | 0.00 | 0.00 | 0.00 | 51 | 931.2 |
| 20260506144554 | 3 | 196 | 11.3 | 17.7 | 0.00 | 0.00 | 0.00 | 52 | 931.6 |
| 20260506143035 | 2 | 213 | 8.0 | 11.3 | 0.00 | 0.00 | 0.00 | 51 | 931.7 |
| 20260506141528 | 1 | 197 | 8.0 | 14.5 | 0.00 | 0.00 | 0.00 | 52 | 931.8 |
| 20260506140007 | 0 | 190 | 8.0 | 12.9 | 0.00 | 0.00 | 0.00 | 53 | 931.7 |
| 20260506134504 | 0 | 175 | 6.4 | 9.7 | 0.00 | 0.00 | 0.00 | 54 | 931.8 |
| 20260506133045 | 0 | 198 | 6.4 | 9.7 | 0.00 | 0.00 | 0.00 | 56 | 931.8 |
| 20260506131555 | -1 | 201 | 6.4 | 9.7 | 0.00 | 0.00 | 0.00 | 60 | 931.9 |
| 20260506130033 | -2 | 211 | 8.0 | 11.3 | 0.00 | 0.00 | 0.00 | 62 | 931.9 |
| 20260506124518 | -4 | 211 | 8.0 | 9.7 | 0.00 | 0.00 | 0.00 | 64 | 932.0 |
| 20260506123101 | -5 | 198 | 4.8 | 8.0 | 0.00 | 0.00 | 0.00 | 64 | 931.9 |
| 20260506123001 | -5 | 197 | 6.4 | 11.3 | 0.00 | 0.00 | 0.00 | 64 | 931.9 |
| 20260506121601 | -5 | 194 | 9.7 | 11.3 | 0.00 | 0.00 | 0.00 | 63 | 932.1 |
| 20260506120038 | -3 | 175 | 6.4 | 11.3 | 0.00 | 0.00 | 0.00 | 61 | 932.0 |
| 20260506114537 | -3 | 247 | 4.8 | 6.4 | 0.00 | 0.00 | 0.00 | 62 | 932.1 |
| 20260506113023 | -3 | 247 | 3.2 | 6.4 | 0.00 | 0.00 | 0.00 | 61 | 932.2 |
| 20260506111517 | -3 | 247 | 4.8 | 6.4 | 0.00 | 0.00 | 0.00 | 62 | 932.3 |
| 20260506110116 | -3 | 247 | 4.8 | 6.4 | 0.00 | 0.00 | 0.00 | 59 | 932.4 |
| 20260506104558 | -3 | 247 | 6.4 | 8.0 | 0.00 | 0.00 | 0.00 | 62 | 932.6 |
| 20260506103056 | -3 | 247 | 4.8 | 9.7 | 0.00 | 0.00 | 0.00 | 62 | 932.7 |
| 20260506101537 | -4 | 252 | 6.4 | 9.7 | 0.00 | 0.00 | 0.00 | 61 | 932.8 |
| 20260506100037 | -3 | 264 | 6.4 | 8.0 | 0.00 | 0.00 | 0.00 | 60 | 932.9 |
| 20260506094513 | -3 | 273 | 6.4 | 8.0 | 0.00 | 0.00 | 0.00 | 60 | 933.0 |
| 20260506093013 | -3 | 273 | 6.4 | 8.0 | 0.00 | 0.00 | 0.00 | 59 | 932.9 |
| 20260506091552 | -2 | 273 | 6.4 | 9.7 | 0.00 | 0.00 | 0.00 | 57 | 933.1 |
| 20260506090050 | -2 | 235 | 9.7 | 14.5 | 0.00 | 0.00 | 0.00 | 55 | 933.2 |
| 20260506084532 | -1 | 205 | 9.7 | 12.9 | 0.00 | 0.00 | 0.00 | 53 | 933.2 |
| 20260506083031 | -2 | 200 | 6.4 | 9.7 | 0.00 | 0.00 | 0.00 | 54 | 933.3 |
| 20260506081514 | -2 | 36 | 0.0 | 0.0 | 0.00 | 0.00 | 0.00 | 54 | 933.4 |
| 20260506073055 | -1 | 36 | 1.6 | 4.8 | 0.00 | 0.00 | 0.00 | 55 | 933.6 |
| 20260506071541 | -2 | 36 | 3.2 | 4.8 | 0.00 | 0.00 | 0.00 | 56 | 933.8 |
| 20260506061556 | -2 | 68 | 4.8 | 6.4 | 0.00 | 0.00 | 0.00 | 54 | 933.9 |
| 20260506060117 | -1 | 68 | 4.8 | 8.0 | 0.00 | 0.00 | 0.00 | 53 | 933.9 |
| 20260506044611 | 0 | 355 | 11.3 | 12.9 | 0.00 | 0.00 | 0.00 | 50 | 934.0 |
| 20260506043055 | 0 | 355 | 9.7 | 12.9 | 0.00 | 0.00 | 0.00 | 49 | 933.8 |
| 20260506041537 | 0 | 355 | 9.7 | 14.5 | 0.00 | 0.00 | 0.00 | 47 | 933.9 |
| 20260506040037 | 0 | 5 | 8.0 | 14.5 | 0.00 | 0.00 | 0.00 | 46 | 933.9 |
| 20260506034519 | 1 | 348 | 9.7 | 14.5 | 0.00 | 0.00 | 0.00 | 45 | 933.9 |
| 20260506033018 | 1 | 348 | 11.3 | 14.5 | 0.00 | 0.00 | 0.00 | 44 | 933.9 |
| 20260506031600 | 2 | 341 | 9.7 | 14.5 | 0.00 | 0.00 | 0.00 | 43 | 933.9 |
| 20260506030058 | 3 | 360 | 9.7 | 14.5 | 0.00 | 0.00 | 0.00 | 40 | 933.7 |
| 20260506024553 | 5 | 342 | 9.7 | 17.7 | 0.00 | 0.00 | 0.00 | 38 | 933.6 |
| 20260506023044 | 6 | 360 | 11.3 | 19.3 | 0.00 | 0.00 | 0.00 | 36 | 933.5 |
| 20260506021542 | 6 | 13 | 11.3 | 17.7 | 0.00 | 0.00 | 0.00 | 34 | 933.3 |
| 20260506020041 | 7 | 21 | 20.9 | 27.4 | 0.00 | 0.00 | 0.00 | 33 | 933.2 |
| 20260506014641 | 8 | 346 | 14.5 | 27.4 | 0.00 | 0.00 | 0.00 | 32 | 933.2 |
| 20260506013039 | 8 | 342 | 20.9 | 29.0 | 0.00 | 0.00 | 0.00 | 30 | 933.1 |
| 20260506011538 | 8 | 326 | 24.1 | 35.4 | 0.00 | 0.00 | 0.00 | 31 | 933.1 |
| 20260506010038 | 8 | 348 | 24.1 | 33.8 | 0.00 | 0.00 | 0.00 | 30 | 932.9 |
| 20260506004519 | 8 | 360 | 17.7 | 29.0 | 0.00 | 0.00 | 0.00 | 32 | 932.8 |
| 20260506003019 | 9 | 5 | 20.9 | 32.2 | 0.00 | 0.00 | 0.00 | 32 | 932.8 |
| 20260506001501 | 9 | 14 | 16.1 | 41.8 | 0.00 | 0.00 | 0.00 | 31 | 932.8 |
| 20260506000001 | 9 | 24 | 19.3 | 41.8 | 0.00 | 0.00 | 0.00 | 31 | 932.7 |
| 20260505234548 | 10 | 17 | 25.7 | 35.4 | 0.00 | 0.00 | 0.00 | 32 | 932.7 |
| 20260505233042 | 9 | 360 | 27.4 | 41.8 | 0.00 | 0.00 | 0.00 | 32 | 932.7 |
| 20260505231524 | 10 | 19 | 25.7 | 43.5 | 0.00 | 0.00 | 0.00 | 31 | 932.7 |
| 20260505230044 | 10 | 347 | 24.1 | 35.4 | 0.00 | 0.00 | 0.00 | 31 | 932.5 |
| 20260505224505 | 10 | 347 | 32.2 | 43.5 | 0.00 | 0.00 | 0.00 | 30 | 932.5 |
| 20260505223004 | 10 | 5 | 24.1 | 40.2 | 0.00 | 0.00 | 0.00 | 31 | 932.5 |
| 20260505221546 | 10 | 342 | 20.9 | 38.6 | 0.00 | 0.00 | 0.00 | 33 | 932.5 |
| 20260505220044 | 9 | 340 | 27.4 | 40.2 | 0.00 | 0.00 | 0.00 | 32 | 932.6 |
| 20260505214527 | 11 | 347 | 30.6 | 43.5 | 0.00 | 0.00 | 0.00 | 31 | 932.6 |
| 20260505213025 | 10 | 348 | 29.0 | 45.1 | 0.00 | 0.00 | 0.00 | 33 | 932.6 |
| 20260505211512 | 10 | 5 | 24.1 | 38.6 | 0.00 | 0.00 | 0.00 | 33 | 932.7 |
| 20260505210008 | 9 | 338 | 25.7 | 38.6 | 0.00 | 0.00 | 0.00 | 35 | 932.6 |
| 20260505204550 | 9 | 346 | 19.3 | 41.8 | 0.00 | 0.00 | 0.00 | 34 | 932.6 |